Location: Saratoga Springs
(43.0831°N, 73.7850°W)
Time: 23:27:38
(UTC-04:00)

Transit 2A Rocket - Pass Details

Date: 20 April 2024
Orbit: 584 x 909 km, 66.7° (Epoch: 24 May)

Event Time Altitude Azimuth Distance (km) Brightness Sun altitude
Rises 21:13:21 0° 328° (NNW) 3,312 9.5 -15.5°
Reaches altitude 10° 21:15:43 10° 328° (NNW) 2,423 8.6 -15.8°
Maximum altitude 21:21:22 89° 245° (WSW) 871 5.2 -16.7°
Enters shadow 21:25:05 24° 151° (SSE) 1,737 6.3 -17.2°
